TimeMDT,TemperatureF,Dew PointF,Humidity,Sea Level PressureIn,VisibilityMPH,Wind Direction,Wind SpeedMPH,Gust SpeedMPH,PrecipitationIn,Events,Conditions,WindDirDegrees,DateUTC
12:15 AM,39.2,6.8,26,29.99,10.0,West,3.5,-,N/A,,Clear,260,2012-10-09 06:15:00
12:35 AM,32.0,8.6,38,29.99,10.0,North,4.6,-,N/A,,Clear,360,2012-10-09 06:35:00
12:55 AM,30.2,10.4,44,30.00,10.0,North,5.8,-,N/A,,Clear,360,2012-10-09 06:55:00
1:15 AM,30.2,12.2,47,30.00,10.0,North,11.5,-,N/A,,Clear,10,2012-10-09 07:15:00
1:35 AM,30.2,12.2,47,30.00,10.0,North,10.4,-,N/A,,Clear,10,2012-10-09 07:35:00
1:55 AM,30.2,12.2,47,30.01,10.0,NNE,9.2,-,N/A,,Clear,20,2012-10-09 07:55:00
2:15 AM,28.4,12.2,51,30.01,10.0,North,11.5,-,N/A,,Clear,10,2012-10-09 08:15:00
2:35 AM,28.4,12.2,51,30.01,10.0,NNE,8.1,-,N/A,,Clear,20,2012-10-09 08:35:00
2:55 AM,28.4,12.2,51,30.02,10.0,NNE,5.8,-,N/A,,Clear,30,2012-10-09 08:55:00
3:15 AM,26.6,12.2,55,30.02,10.0,North,5.8,-,N/A,,Clear,10,2012-10-09 09:15:00
3:35 AM,26.6,12.2,55,30.02,10.0,NNE,4.6,-,N/A,,Clear,30,2012-10-09 09:35:00
3:55 AM,26.6,12.2,55,30.03,10.0,North,4.6,-,N/A,,Clear,10,2012-10-09 09:55:00
4:16 AM,26.6,12.2,55,30.03,10.0,North,6.9,-,N/A,,Clear,10,2012-10-09 10:16:00
4:35 AM,26.6,12.2,55,30.04,10.0,NNE,4.6,-,N/A,,Clear,30,2012-10-09 10:35:00
4:55 AM,24.8,12.2,59,30.04,10.0,NE,4.6,-,N/A,,Clear,50,2012-10-09 10:55:00
5:15 AM,24.8,12.2,59,30.04,10.0,North,5.8,-,N/A,,Clear,10,2012-10-09 11:15:00
5:35 AM,24.8,12.2,59,30.04,10.0,NNE,4.6,-,N/A,,Clear,20,2012-10-09 11:35:00
5:55 AM,21.2,10.4,63,30.05,10.0,NNE,5.8,-,N/A,,Clear,20,2012-10-09 11:55:00
6:15 AM,21.2,10.4,63,30.06,10.0,NNE,6.9,-,N/A,,Clear,20,2012-10-09 12:15:00
6:35 AM,23.0,12.2,63,30.07,10.0,North,6.9,-,N/A,,Clear,360,2012-10-09 12:35:00
6:51 AM,21.2,12.2,68,30.07,10.0,NE,5.8,-,N/A,,Clear,50,2012-10-09 12:51:00
6:55 AM,21.2,12.2,68,30.07,10.0,NNE,8.1,-,N/A,,Clear,30,2012-10-09 12:55:00
7:51 AM,23.0,12.2,63,30.09,10.0,North,4.6,-,N/A,,Partly Cloudy,10,2012-10-09 13:51:00
9:51 AM,37.4,10.4,33,30.11,10.0,Calm,Calm,-,N/A,,Clear,0,2012-10-09 15:51:00
10:56 AM,44.6,10.4,25,30.12,10.0,Calm,Calm,-,N/A,,Clear,0,2012-10-09 16:56:00
11:57 AM,48.2,12.2,24,30.10,10.0,SSE,4.6,-,N/A,,Clear,160,2012-10-09 17:57:00
12:51 PM,53.6,17.6,24,30.09,10.0,Calm,Calm,-,N/A,,Clear,0,2012-10-09 18:51:00
1:52 PM,55.4,19.4,25,30.08,10.0,Calm,Calm,-,N/A,,Clear,0,2012-10-09 19:52:00
3:05 PM,57.2,19.4,23,30.07,10.0,SW,5.8,-,N/A,,Clear,230,2012-10-09 21:05:00
3:51 PM,59.0,44.6,59,30.07,10.0,WSW,12.7,19.6,N/A,,Clear,240,2012-10-09 21:51:00
4:50 PM,59.0,19.4,22,30.07,10.0,WSW,13.8,-,N/A,,Clear,240,2012-10-09 22:50:00
5:52 PM,57.2,19.4,23,30.08,10.0,WSW,9.2,-,N/A,,Clear,240,2012-10-09 23:52:00
6:51 PM,51.8,19.4,28,30.09,10.0,West,4.6,-,N/A,,Clear,260,2012-10-10 00:51:00
7:55 PM,48.2,19.4,32,30.10,10.0,SE,3.5,-,N/A,,Clear,140,2012-10-10 01:55:00
8:51 PM,42.8,19.4,39,30.11,10.0,East,4.6,-,N/A,,Clear,80,2012-10-10 02:51:00
8:55 PM,44.6,19.4,37,30.11,10.0,East,5.8,-,N/A,,Clear,90,2012-10-10 02:55:00
9:15 PM,35.6,17.6,48,30.12,10.0,North,8.1,-,N/A,,Clear,10,2012-10-10 03:15:00
9:35 PM,35.6,17.6,48,30.13,10.0,North,8.1,-,N/A,,Clear,10,2012-10-10 03:35:00
9:55 PM,33.8,17.6,52,30.13,10.0,North,8.1,-,N/A,,Clear,10,2012-10-10 03:55:00
10:15 PM,33.8,17.6,52,30.13,10.0,North,6.9,-,N/A,,Clear,10,2012-10-10 04:15:00
10:35 PM,33.8,19.4,56,30.14,10.0,NE,3.5,-,N/A,,Clear,40,2012-10-10 04:35:00
10:55 PM,33.8,17.6,52,30.14,10.0,Calm,Calm,-,N/A,,Clear,0,2012-10-10 04:55:00
11:15 PM,33.8,19.4,56,30.14,10.0,NNW,3.5,-,N/A,,Clear,330,2012-10-10 05:15:00
11:35 PM,32.0,19.4,60,30.14,10.0,North,5.8,-,N/A,,Clear,360,2012-10-10 05:35:00
11:55 PM,32.0,19.4,60,30.14,10.0,North,5.8,-,N/A,,Clear,10,2012-10-10 05:55:00